DW1065 Weather Reports


time (UTC)temp
F
wind
direction
speed
knots
gust
knots
rain 1hr
in
rain 24hr
in
rain mn
in
humidity
%
barometer
mb
20260505231006 34 160 0.0 0.9 1.40 3.37 1.64 75 1007.4
20260505230504 35 167 0.0 0.9 1.40 3.37 1.52 76 1007.4
20260505230005 35 162 0.0 0.9 1.40 3.37 1.40 76 1007.5
20260505225504 35 165 0.0 0.9 1.40 3.37 1.28 76 1007.5
20260505224004 36 165 0.0 1.7 1.42 3.37 0.94 78 1007.6
20260505223005 36 165 0.9 2.6 1.40 3.37 0.70 78 1007.5
20260505222006 36 174 0.0 1.7 1.40 3.36 0.46 78 1007.5
20260505221504 37 174 0.0 0.9 1.40 3.36 0.34 77 1007.4
20260505221004 37 173 0.0 0.9 1.42 3.37 0.24 77 1007.4
20260505220505 37 170 0.0 0.9 1.42 3.37 0.12 77 1007.4
20260505220004 37 175 0.0 0.9 1.40 3.37 0.00 77 1007.4
20260505215504 38 172 0.0 0.9 1.40 3.37 3.36 76 1007.3
20260505215005 38 163 0.0 0.9 1.40 3.37 3.34 76 1007.2
20260505214505 38 175 0.0 0.9 1.40 3.36 3.33 76 1007.2
20260505214004 38 174 0.0 0.9 1.42 3.37 3.32 75 1007.2
20260505212504 40 168 0.0 0.9 1.40 3.37 3.29 73 1007.1
20260505212005 40 164 0.0 0.9 1.40 3.37 3.27 72 1007.2
20260505211504 40 166 0.0 0.9 1.40 3.37 3.26 71 1007.2
20260505211004 41 175 0.0 0.9 1.40 3.36 3.25 71 1007.3
20260505210004 41 174 0.0 0.9 1.42 3.37 3.23 71 1007.2
20260505205504 41 172 0.0 0.9 1.40 3.37 3.22 70 1007.0
20260505205004 41 172 0.0 0.9 1.40 3.37 3.20 70 1007.0
20260505204504 42 176 0.0 0.9 1.40 3.37 3.19 70 1007.0
20260505204005 42 172 0.0 0.9 1.40 3.37 3.18 69 1007.0
20260505203504 42 175 0.0 0.9 1.40 3.36 3.17 69 1007.0
20260505203004 42 169 0.0 0.9 1.42 3.37 3.16 68 1007.0
20260505202504 43 173 0.0 0.9 1.42 3.37 3.15 68 1006.8
20260505202005 43 175 0.0 0.9 1.40 3.37 3.13 68 1006.9
20260505201504 43 173 0.0 0.9 1.40 3.37 3.12 67 1006.9
20260505201004 43 171 0.0 1.7 1.40 3.37 3.11 67 1006.8
20260505200505 44 170 0.0 1.7 1.40 3.37 3.10 66 1006.7
20260505200004 44 173 0.9 1.7 1.40 3.36 3.09 66 1006.7
20260505195504 44 174 0.0 0.9 1.42 3.37 3.08 66 1006.7
20260505195005 44 168 0.0 1.7 1.42 3.37 3.06 65 1006.6
20260505194504 44 168 0.9 1.7 1.40 3.37 3.05 65 1006.7
20260505194004 44 171 0.0 1.7 1.40 3.37 3.04 65 1006.7
20260505193504 44 172 0.9 2.6 1.40 3.37 3.03 64 1006.6
20260505192006 45 222 0.9 5.2 1.42 3.37 2.99 64 1006.3
20260505191503 45 213 1.7 5.2 1.40 3.37 2.98 64 1006.2
20260505191004 45 197 1.7 4.3 1.40 3.37 2.97 64 1006.3
20260505190504 45 180 1.7 5.2 1.40 3.37 2.96 63 1006.1
20260505190005 45 179 1.7 5.2 1.40 3.37 2.95 63 1006.1
20260505185504 45 218 1.7 4.3 1.40 3.36 2.93 62 1006.2
20260505185005 45 193 1.7 4.3 1.40 3.36 2.92 62 1006.2
20260505184505 45 199 0.9 2.6 1.42 3.37 2.91 62 1006.1
20260505184004 46 191 1.7 7.0 1.40 3.37 2.90 61 1006.1
20260505183505 46 201 0.9 7.0 1.40 3.37 2.89 61 1006.0
20260505183005 46 190 2.6 7.0 1.40 3.37 2.88 60 1005.9
20260505182504 46 207 1.7 5.2 1.40 3.37 2.86 60 1006.0
20260505182004 46 214 1.7 6.1 1.40 3.36 2.85 60 1006.0
20260505181504 46 210 1.7 6.1 1.42 3.37 2.84 59 1006.0
20260505181004 46 199 1.7 7.0 1.42 3.37 2.83 58 1005.9
20260505180505 47 213 2.6 7.0 1.40 3.37 2.82 57 1006.0
20260505180004 47 204 2.6 7.0 1.40 3.37 2.81 56 1005.9
20260505175504 48 207 1.7 7.0 1.40 3.37 2.79 55 1005.9
20260505175004 48 210 2.6 7.8 1.40 3.37 2.78 54 1005.8
20260505174504 48 234 2.6 7.8 1.40 3.36 2.77 54 1005.9
20260505174004 48 234 1.7 4.3 1.42 3.37 2.76 53 1005.9
20260505173504 49 226 0.9 5.2 1.42 3.37 2.75 52 1005.8
20260505173005 49 217 2.6 6.1 1.40 3.37 2.74 51 1005.9
20260505172504 49 227 1.7 6.1 1.40 3.37 2.72 51 1005.9
20260505172006 49 204 1.7 6.1 1.40 3.37 2.71 50 1005.9
20260505171504 49 228 1.7 7.8 1.40 3.37 2.70 50 1005.9
20260505171005 49 224 1.7 7.8 1.40 3.36 2.69 50 1005.9
20260505170504 49 211 0.9 5.2 1.42 3.37 2.68 49 1005.9
20260505170004 49 247 1.7 6.1 1.42 3.37 2.67 48 1005.8
20260505165504 49 278 2.6 6.1 1.40 3.37 2.65 47 1005.9
20260505164504 49 245 1.7 6.1 1.40 3.37 2.63 47 1005.8
20260505164004 50 235 1.7 6.1 1.40 3.36 2.62 48 1005.8
20260505163505 50 252 1.7 5.2 1.40 3.36 2.61 47 1005.8
20260505163004 50 242 1.7 10.4 1.42 3.37 2.60 45 1005.9
20260505162504 50 243 2.6 10.4 1.42 3.37 2.58 44 1005.8
20260505162005 50 257 0.9 5.2 1.40 3.37 2.57 45 1005.7
20260505161504 50 254 0.9 5.2 1.40 3.37 2.56 43 1005.6
20260505161004 51 238 1.7 7.8 1.40 3.37 2.55 43 1005.7
20260505153004 52 253 1.7 7.0 1.40 3.37 2.45 37 1005.5
20260505152504 53 218 2.6 8.7 1.40 3.36 2.44 37 1005.5
20260505152004 53 241 2.6 8.7 1.42 3.37 2.43 36 1005.5
20260505151504 54 224 2.6 10.4 1.40 3.37 2.42 36 1005.3
20260505151004 54 258 4.3 10.4 1.40 3.37 2.41 36 1005.2
20260505150504 53 248 0.9 7.8 1.40 3.37 2.40 37 1005.2
20260505124504 53 281 1.7 6.1 1.40 3.37 2.07 30 1005.2
20260505124004 53 237 2.6 7.0 1.40 3.36 2.06 28 1005.2
20260505123503 53 254 1.7 7.0 1.40 3.36 2.04 29 1005.3
20260505123004 53 251 1.7 5.2 1.42 3.37 2.03 28 1005.4
20260505122006 52 321 2.6 6.1 1.40 3.37 2.01 29 1005.3
20260505121503 52 318 2.6 6.1 1.40 3.37 2.00 32 1005.3
20260505121004 52 269 1.7 6.1 1.40 3.37 1.99 31 1005.3
20260505120503 52 281 2.6 5.2 1.40 3.36 1.97 29 1005.3
20260505120005 52 281 1.7 6.1 1.42 3.37 1.96 29 1005.4
20260505115503 52 286 2.6 6.1 1.42 3.37 1.95 30 1005.5
20260505114504 52 255 2.6 7.0 1.40 3.37 1.93 30 1005.4
20260505114004 52 235 2.6 6.1 1.40 3.37 1.92 30 1005.4
20260505113504 52 6 1.7 6.1 1.40 3.37 1.90 29 1005.5
20260505113004 52 297 2.6 6.1 1.40 3.36 1.89 33 1005.6
20260505112504 52 302 1.7 4.3 1.42 3.37 1.88 32 1005.6
20260505112006 52 284 2.6 4.3 1.42 3.37 1.87 33 1005.6
20260505111004 52 285 1.7 5.2 1.40 3.37 1.85 32 1005.6
20260505102005 50 311 2.6 7.0 1.40 3.36 1.73 35 1005.6
20260505101005 50 270 2.6 6.1 1.40 3.37 1.71 37 1005.6
20260505100005 49 238 1.7 2.6 1.40 3.37 1.68 37 1005.7
20260505095505 49 305 1.7 5.2 1.40 3.37 1.67 34 1005.7
20260505095006 49 320 1.7 5.2 1.40 3.37 1.66 35 1005.7
20260505094004 49 326 2.6 5.2 1.42 3.37 1.64 38 1005.6
20260505093505 49 299 1.7 7.8 1.40 3.37 1.62 36 1005.6
20260505093005 49 321 2.6 7.8 1.40 3.37 1.61 38 1005.6
20260505092505 48 252 1.7 5.2 1.40 3.37 1.60 39 1005.6
20260505092006 48 35 1.7 5.2 1.40 3.37 1.59 37 1005.6
20260505091505 48 19 1.7 5.2 1.40 3.37 1.58 37 1005.7
20260505085505 47 223 0.9 6.1 1.40 3.37 1.53 43 1005.6
20260505085005 46 11 0.9 4.3 1.40 3.37 1.52 42 1005.6
20260505084505 47 269 0.9 4.3 1.40 3.37 1.51 42 1005.7
20260505084005 47 22 1.7 4.3 1.40 3.36 1.49 41 1005.6
20260505083505 47 301 1.7 4.3 1.42 3.37 1.48 42 1005.5
20260505083006 47 346 1.7 6.1 1.42 3.37 1.47 42 1005.4
20260505082504 47 193 1.7 6.1 1.40 3.37 1.46 42 1005.4
20260505082006 46 224 1.7 4.3 1.40 3.37 1.45 42 1005.4
20260505081005 46 24 1.7 5.2 1.40 3.37 1.42 43 1005.4
20260505080504 46 286 1.7 2.6 1.40 3.36 1.41 43 1005.4
20260505080005 45 22 1.7 5.2 1.42 3.37 1.40 44 1005.4
20260505075505 45 334 2.6 5.2 1.42 3.37 1.39 42 1005.3
20260505075005 45 21 0.9 2.6 1.40 3.37 1.38 43 1005.2
20260505074506 45 24 0.9 5.2 1.40 3.37 1.37 44 1005.2
20260505074005 45 32 1.7 5.2 1.40 3.37 1.35 45 1005.2
20260505073505 45 344 1.7 5.2 1.40 3.37 1.34 46 1005.1
20260505073005 44 323 1.7 4.3 1.40 3.36 1.33 45 1005.0
20260505072504 44 16 1.7 4.3 1.42 3.37 1.32 45 1005.0
20260505072006 44 18 0.9 4.3 1.42 3.37 1.31 44 1005.0
20260505071005 44 11 1.7 2.6 1.40 3.37 1.28 46 1004.9
20260505070006 43 355 1.7 2.6 1.40 3.37 1.26 48 1004.9
20260505065505 43 3 1.7 2.6 1.40 3.36 1.25 49 1004.9
20260505065005 43 291 0.9 4.3 1.42 3.37 1.24 49 1005.0
20260505064505 43 13 1.7 4.3 1.42 3.37 1.23 50 1005.0
20260505064005 43 309 1.7 2.6 1.40 3.37 1.21 51 1004.8
20260505063504 42 302 0.9 2.6 1.40 3.37 1.20 53 1004.9
20260505063007 42 333 1.7 5.2 1.40 3.37 1.19 52 1005.0
20260505062505 42 331 1.7 5.2 1.40 3.37 1.18 53 1005.0
20260505062004 41 307 1.7 2.6 1.40 3.36 1.17 53 1004.9
20260505061505 41 1 1.7 2.6 1.42 3.37 1.16 54 1004.9
20260505061005 41 10 0.9 2.6 1.40 3.37 1.14 54 1004.9
20260505060505 40 345 1.7 4.3 1.40 3.37 1.13 55 1004.9
20260505055505 39 324 1.7 4.3 1.44 3.37 1.11 58 1004.9
20260505055005 39 13 1.7 2.6 1.40 3.36 1.10 58 1004.9
20260505054506 39 20 1.7 4.3 1.40 3.36 1.08 59 1004.9
20260505052504 36 23 0.9 2.6 1.40 3.37 1.04 66 1004.9
20260505052005 36 39 0.9 2.6 1.40 3.37 1.03 68 1004.8
20260505051505 35 280 0.9 2.6 1.40 3.36 1.01 69 1004.8
20260505051004 34 295 0.9 2.6 1.42 3.37 1.00 71 1004.7
20260505050505 34 288 0.0 2.6 1.42 3.37 9.96 73 1004.8
20260505041505 30 289 0.0 0.9 1.40 3.37 8.78 75 1004.3
20260505041005 30 295 0.0 0.9 1.40 3.37 8.66 75 1004.3
20260505040505 30 294 0.0 0.9 1.40 3.36 8.54 75 1004.2
20260505040006 31 305 0.0 0.9 1.42 3.37 8.44 74 1004.2
20260505035504 31 291 0.0 0.9 1.42 3.37 8.32 74 1004.1
20260505035005 31 298 0.0 0.9 1.40 3.37 8.20 73 1004.1
20260505034506 31 300 0.0 0.9 1.40 3.37 8.08 73 1004.0
20260505034005 31 293 0.0 0.9 1.40 3.37 7.96 73 1004.0
20260505033504 31 291 0.0 0.9 1.40 3.37 7.84 73 1003.9
20260505033006 31 296 0.0 0.9 1.40 3.36 7.72 73 1003.9
20260505032004 32 293 0.0 0.9 1.42 3.37 7.50 72 1004.0
20260505031504 32 292 0.0 0.9 1.40 3.37 7.38 72 1004.0
20260505031005 32 304 0.0 0.9 1.40 3.37 7.26 72 1003.9
20260505030505 32 307 0.0 0.9 1.40 3.37 7.14 72 1003.9
20260505030005 32 296 0.0 0.9 1.40 3.37 7.02 72 1003.9
20260505025505 33 287 0.0 0.9 1.40 3.36 6.90 72 1003.9
20260505025005 33 297 0.0 0.9 1.42 3.37 6.80 72 1003.8
20260505024505 33 293 0.0 0.9 1.42 3.37 6.68 72 1003.7
20260505024005 33 302 0.0 0.9 1.40 3.37 6.56 72 1003.7
20260505023505 33 290 0.0 1.7 1.40 3.37 6.44 71 1003.7
20260505023005 33 298 0.9 1.7 1.40 3.37 6.32 71 1003.7
20260505022004 34 298 0.0 0.9 1.40 3.36 6.08 69 1003.7
20260505021005 34 299 0.0 0.9 1.42 3.37 5.86 69 1003.5
20260505020504 35 294 0.0 0.9 1.40 3.37 5.74 68 1003.4
20260505020005 35 292 0.0 0.9 1.40 3.37 5.62 68 1003.4
20260505015505 35 299 0.0 0.9 1.40 3.37 5.50 68 1003.3
20260505015005 35 298 0.0 0.9 1.40 3.37 5.38 68 1003.3
20260505014505 35 345 0.0 1.7 1.40 3.36 5.26 68 1003.1
20260505014005 35 291 0.0 1.7 1.42 3.37 5.16 67 1003.1
20260505013506 35 296 0.9 2.6 1.40 3.37 5.04 68 1003.0
20260505012505 36 280 0.9 2.6 1.40 3.37 4.80 67 1003.0
20260505012005 36 277 0.9 2.6 1.40 3.37 4.68 68 1003.0
20260505011506 36 281 0.0 1.7 1.40 3.36 4.56 67 1003.0
20260505011004 36 297 0.0 1.7 1.40 3.36 4.44 67 1002.9
20260505010006 37 260 0.9 2.6 1.40 3.37 4.22 67 1002.9
20260505005505 37 248 0.9 2.6 1.40 3.37 4.10 66 1002.8
20260505005005 37 274 0.0 4.3 1.40 3.37 3.98 66 1002.8
20260505004505 37 267 1.7 4.3 1.40 3.37 3.86 66 1002.7
20260505003505 37 271 0.9 2.6 1.42 3.37 3.64 65 1002.7
20260505002504 38 274 0.9 1.7 1.40 3.37 3.40 64 1002.8
20260505002005 38 272 0.0 0.9 1.40 3.37 3.28 65 1002.8
20260505001505 39 268 0.0 0.9 1.40 3.37 3.16 63 1002.7
20260505001005 39 278 0.0 0.9 1.40 3.37 3.04 62 1002.6
20260505000005 39 281 0.9 2.6 1.42 3.37 2.82 61 1002.5
20260504235504 39 266 0.9 2.6 1.42 3.37 2.70 61 1002.5
20260504235005 39 293 0.9 5.2 1.40 3.37 2.58 61 1002.4
20260504234505 40 294 0.9 5.2 1.40 3.37 2.46 60 1002.3
20260504234005 40 280 0.9 6.1 1.40 3.37 2.34 60 1002.2
20260504233505 40 305 1.7 7.0 1.40 3.37 2.22 61 1002.1
20260504233005 40 276 1.7 7.0 1.40 3.36 2.10 61 1002.0
20260504232504 40 275 2.6 6.1 1.42 3.37 2.00 62 1001.9